PACCTY-2 Weather Reports


Display with metric or nautical units.
time (UTC)temp
F
wind
direction
speed
MPH
gust
MPH
rain 1hr
in
rain 24hr
in
rain mn
in
humidity
%
barometer
mb
20260506092721 55 271 2.0 8.0 0.00 0.00 0.00
20260506091718 55 281 7.0 8.0 0.00 0.00 0.00
20260506091217 55 302 5.0 8.0 0.00 0.00 0.00
20260506090716 55 298 5.0 8.0 0.00 0.00 0.00
20260506085714 55 315 5.0 8.0 0.00 0.00 0.00
20260506085213 55 294 6.0 7.0 0.00 0.00 0.00
20260506083209 55 0 0.0 6.0 0.00 0.00 0.00
20260506082207 55 340 0.0 6.0 0.00 0.00 0.00
20260506081708 55 303 5.0 5.0 0.00 0.00 0.00
20260506081205 55 0 0.0 6.0 0.00 0.00 0.00
20260506080704 55 324 0.0 6.0 0.00 0.00 0.00
20260506080203 55 315 0.0 6.0 0.00 0.00 0.00
20260506072156 55 0 0.0 0.0 0.00 0.00 0.00
20260506071154 55 0 0.0 6.0 0.00 0.00 0.00
20260506070652 55 0 0.0 6.0 0.00 0.00 0.00
20260506061642 55 0 0.0 0.0 0.00 0.00 0.00
20260506051129 56 336 4.0 5.0 0.00 0.00 0.00
20260506050628 56 324 4.0 4.0 0.00 0.00 0.00
20260506043622 56 338 3.0 5.0 0.00 0.00 0.00
20260506043214 56 9 3.0 5.0 0.00 0.00 0.00
20260506043121 56 9 3.0 5.0 0.00 0.00 0.00
20260506042619 55 317 4.0 6.0 0.00 0.00 0.00
20260506042120 55 0 0.0 6.0 0.00 0.00 0.00
20260506041617 55 313 0.0 6.0 0.00 0.00 0.00
20260506040115 55 30 5.0 9.0 0.00 0.00 0.00
20260506034612 56 338 7.0 8.0 0.00 0.00 0.00
20260506034110 56 329 6.0 8.0 0.00 0.00 0.00
20260506033610 56 330 5.0 8.0 0.00 0.00 0.00
20260506033108 56 333 6.0 7.0 0.00 0.00 0.00
20260506031605 56 344 4.0 7.0 0.00 0.00 0.00
20260506031104 56 344 5.0 7.0 0.00 0.00 0.00
20260506030603 56 333 5.0 6.0 0.00 0.00 0.00
20260506025601 56 338 5.0 6.0 0.00 0.00 0.00
20260506025103 56 322 5.0 7.0 0.00 0.00 0.00
20260506024601 56 341 4.0 7.0 0.00 0.00 0.00
20260506024058 56 319 5.0 7.0 0.00 0.00 0.00
20260506023557 56 338 5.0 7.0 0.00 0.00 0.00
20260506022054 56 333 5.0 7.0 0.00 0.00 0.00
20260506021554 56 337 6.0 7.0 0.00 0.00 0.00
20260506020557 57 343 5.0 7.0 0.00 0.00 0.00
20260506020551 57 343 5.0 7.0 0.00 0.00 0.00
20260506015051 57 341 5.0 8.0 0.00 0.00 0.00
20260506014046 57 345 7.0 8.0 0.00 0.00 0.00
20260506013545 57 333 6.0 7.0 0.00 0.00 0.00
20260506013044 57 326 6.0 7.0 0.00 0.00 0.00
20260506011542 57 330 6.0 8.0 0.00 0.00 0.00
20260506011040 57 336 6.0 8.0 0.00 0.00 0.00
20260506010539 57 344 6.0 8.0 0.00 0.00 0.00
20260506010039 58 326 6.0 8.0 0.00 0.00 0.00
20260506005540 58 324 6.0 8.0 0.00 0.00 0.00
20260506005037 58 323 5.0 8.0 0.00 0.00 0.00
20260506003533 58 336 6.0 9.0 0.00 0.00 0.00
20260506001529 58 326 7.0 9.0 0.00 0.00 0.00
20260506001029 58 322 6.0 8.0 0.00 0.00 0.00
20260506000527 58 326 6.0 8.0 0.00 0.00 0.00
20260505235525 58 323 6.0 8.0 0.00 0.00 0.00
20260505235024 59 324 6.0 8.0 0.00 0.00 0.00
20260505231016 59 331 7.0 8.0 0.00 0.00 0.00
20260505225515 59 316 6.0 7.0 0.00 0.00 0.00
20260505223510 58 302 5.0 7.0 0.00 0.00 0.00
20260505222507 59 309 6.0 7.0 0.00 0.00 0.00
20260505222007 59 322 5.0 6.0 0.00 0.00 0.00
20260505221506 59 298 5.0 7.0 0.00 0.00 0.00
20260505220002 59 298 5.0 6.0 0.00 0.00 0.00
20260505215000 59 320 5.0 6.0 0.00 0.00 0.00
20260505214459 58 316 5.0 6.0 0.00 0.00 0.00
20260505213457 58 305 4.0 5.0 0.00 0.00 0.00
20260505211453 58 0 0.0 0.0 0.00 0.00 0.00
20260505210952 58 0 0.0 0.0 0.00 0.00 0.00
20260505210451 58 0 0.0 0.0 0.00 0.00 0.00
20260505205950 58 0 0.0 0.0 0.00 0.00 0.00
20260505204948 58 0 0.0 0.0 0.00 0.00 0.00
20260505204448 58 0 0.0 0.0 0.00 0.00 0.00
20260505203445 58 0 0.0 0.0 0.00 0.00 0.00
20260505202944 58 0 0.0 0.0 0.00 0.00 0.00
20260505201441 58 0 0.0 0.0 0.00 0.00 0.00
20260505200940 58 0 0.0 0.0 0.00 0.00 0.00
20260505200439 58 0 0.0 0.0 0.00 0.00 0.00
20260505194939 58 245 0.0 3.0 0.00 0.00 0.00
20260505193934 58 0 0.0 0.0 0.00 0.00 0.00
20260505193433 58 0 0.0 7.0 0.00 0.00 0.00
20260505191930 58 259 5.0 8.0 0.00 0.00 0.00
20260505191429 58 271 6.0 8.0 0.00 0.00 0.00
20260505190928 58 277 5.0 8.0 0.00 0.00 0.00
20260505190427 58 267 7.0 8.0 0.00 0.00 0.00
20260505185926 57 267 6.0 8.0 0.00 0.00 0.00
20260505185425 57 263 7.0 10.0 0.00 0.00 0.00
20260505183421 57 268 7.0 9.0 0.00 0.00 0.00
20260505182920 57 266 6.0 9.0 0.00 0.00 0.00
20260505181417 57 252 5.0 7.0 0.00 0.00 0.00
20260505180917 57 264 5.0 9.0 0.00 0.00 0.00
20260505180415 57 263 5.0 9.0 0.00 0.00 0.00
20260505175413 57 263 7.0 8.0 0.00 0.00 0.00
20260505174912 57 253 7.0 11.0 0.00 0.00 0.00
20260505171906 56 257 8.0 11.0 0.00 0.00 0.00
20260505171406 56 253 7.0 10.0 0.00 0.00 0.00
20260505170906 56 261 8.0 10.0 0.00 0.00 0.00
20260505165401 56 257 8.0 12.0 0.00 0.00 0.00
20260505164902 56 261 8.0 12.0 0.00 0.00 0.00
20260505164400 56 254 11.0 12.0 0.00 0.00 0.00
20260505163859 56 245 7.0 10.0 0.00 0.00 0.00
20260505162355 56 260 7.0 10.0 0.00 0.00 0.00
20260505161854 56 263 7.0 10.0 0.00 0.00 0.00
20260505161353 55 256 7.0 10.0 0.00 0.00 0.00
20260505160852 55 249 8.0 9.0 0.00 0.00 0.00
20260505160351 55 238 6.0 8.0 0.00 0.00 0.00
20260505152845 54 191 0.0 4.0 0.00 0.00 0.00
20260505152344 54 0 0.0 0.0 0.00 0.00 0.00
20260505151842 54 0 0.0 0.0 0.00 0.00 0.00
20260505150842 54 228 0.0 7.0 0.00 0.00 0.00
20260505124812 54 0 0.0 0.0 0.00 0.00 0.00
20260505124311 54 0 0.0 0.0 0.00 0.00 0.00
20260505123810 54 0 0.0 0.0 0.00 0.00 0.00
20260505123309 54 0 0.0 5.0 0.00 0.00 0.00
20260505122808 54 0 0.0 5.0 0.00 0.00 0.00
20260505121307 54 239 0.0 3.0 0.00 0.00 0.00
20260505120804 54 229 0.0 12.0 0.00 0.00 0.00
20260505120424 54 233 5.0 12.0 0.00 0.00 0.00
20260505120303 54 233 5.0 12.0 0.00 0.00 0.00
20260505115301 54 256 9.0 10.0 0.00 0.00 0.00
20260505114259 54 228 6.0 9.0 0.00 0.00 0.00
20260505113758 54 217 6.0 9.0 0.00 0.00 0.00
20260505112255 54 236 6.0 11.0 0.00 0.00 0.00
20260505111755 53 238 7.0 10.0 0.00 0.00 0.00
20260505110752 53 211 8.0 11.0 0.00 0.00 0.00
20260505101743 54 238 9.0 13.0 0.00 0.00 0.00
20260505100740 54 238 8.0 15.0 0.00 0.00 0.00
20260505100240 54 233 11.0 15.0 0.00 0.00 0.00
20260505095237 54 254 8.0 13.0 0.00 0.00 0.00
20260505093734 54 246 9.0 16.0 0.00 0.00 0.00